Overview Statistics Trail Chart Weather Telemetry Raw packets
 

This is the latest recevied weather packets stored in our database for station/object KE6JJJ-1. If no packets are shown the sender has not sent any weather packets the latest 10 day(s).

<< 5 6 7 8 9 10 11 >>
Time Temp. Humidity Pressure Rain* Wind** Luminosity Snow
1788381303 21.11° C 73% 1017.2 hPa 0 mm - 886 W/m² -
1788379503 21.67° C 72% 1017.5 hPa 0 mm - 1099 W/m² -
1788377703 20° C 81% 1017.7 hPa 0.25 mm - 844 W/m² -
1788375903 20° C 81% 1017.9 hPa 0.25 mm - 513 W/m² -
1788374103 20.56° C 75% 1017.6 hPa 0 mm - 346 W/m² -
1788372303 20.56° C 76% 1017.5 hPa 0 mm - 214 W/m² -
1788370503 20.56° C 75% 1017.2 hPa 0 mm - 239 W/m² -
1788368703 20° C 77% 1017 hPa 0 mm - 121 W/m² -
1788366903 20° C 78% 1016.6 hPa 0 mm - 179 W/m² -
1788365105 19.44° C 77% 1016.8 hPa 0 mm - 67 W/m² -
1788363307 18.33° C 80% 1016.8 hPa 0 mm - 93 W/m² -
1788361503 17.78° C 80% 1016.7 hPa 0 mm - 80 W/m² -
1788359703 17.22° C 80% 1016.1 hPa 0 mm - 55 W/m² -
1788357903 17.22° C 79% 1016.2 hPa 0 mm - 12 W/m² -
1788356103 17.22° C 79% 1016 hPa 0 mm - 0 W/m² -
1788354303 17.22° C 79% 1015.8 hPa 0 mm - 0 W/m² -
1788352503 17.22° C 80% 1015.8 hPa 0 mm - 0 W/m² -
1788350703 17.22° C 83% 1016 hPa 0 mm - 0 W/m² -
1788348903 16.67° C 84% 1015.8 hPa 0 mm - 0 W/m² -
1788347103 16.11° C 85% 1015.8 hPa 0 mm - 0 W/m² -
1788345303 16.11° C 84% 1016.1 hPa 0 mm - 0 W/m² -
1788343504 16.11° C 83% 1015.9 hPa 0 mm - 0 W/m² -
1788341703 16.67° C 83% 1015.7 hPa 0 mm - 0 W/m² -
1788339903 16.67° C 84% 1015.8 hPa 0 mm - 0 W/m² -
1788338103 16.67° C 84% 1016 hPa 0 mm - 0 W/m² -

* Rain latest hour (hover to see other rain measurements)
** Current wind speed in m/s (hover to see current wind gust speed)